This is the latest recevied weather packets stored in our database for station/object SP1BMW-13. If no packets are shown the sender has not sent any weather packets the latest 10 day(s).
| Time | Temp. | Humidity | Pressure | Rain* | Wind** | Luminosity | Snow |
|---|---|---|---|---|---|---|---|
| 1787480743 | 17.22° C | 68% | 1017.1 hPa | 0 mm | 0.89 m/s, 273° | 277 W/m² | - |
| 1787480684 | 17.22° C | 68% | 1017.3 hPa | 0 mm | 1.34 m/s, 177° | 249 W/m² | - |
| 1787480624 | 17.22° C | 68% | 1017.2 hPa | 0 mm | 1.79 m/s, 211° | 199 W/m² | - |
| 1787480564 | 17.22° C | 68% | 1017.1 hPa | 0 mm | 1.34 m/s, 276° | 158 W/m² | - |
| 1787480504 | 17.22° C | 67% | 1017.1 hPa | 0 mm | 2.24 m/s, 273° | 154 W/m² | - |
| 1787480444 | 17.22° C | 68% | 1017.3 hPa | 0 mm | 1.79 m/s, 259° | 172 W/m² | - |
| 1787480384 | 17.22° C | 68% | 1017.3 hPa | 0 mm | 0.45 m/s, 283° | 197 W/m² | - |
| 1787480324 | 17.22° C | 67% | 1017.2 hPa | 0 mm | 2.24 m/s, 234° | 227 W/m² | - |
| 1787480264 | 16.67° C | 68% | 1017.1 hPa | 0 mm | 1.79 m/s, 210° | 252 W/m² | - |
| 1787480204 | 16.67° C | 68% | 1017.3 hPa | 0 mm | 2.68 m/s, 257° | 290 W/m² | - |
| 1787480144 | 16.67° C | 70% | 1017.3 hPa | 0 mm | 0.45 m/s, 233° | 327 W/m² | - |
| 1787480084 | 16.11° C | 71% | 1017.3 hPa | 0 mm | 0.89 m/s, 211° | 529 W/m² | - |
| 1787480024 | 16.11° C | 72% | 1017.3 hPa | 0 mm | 0.45 m/s, 295° | 413 W/m² | - |
| 1787479963 | 16.11° C | 71% | 1017.3 hPa | 0 mm | 1.34 m/s, 280° | 425 W/m² | - |
| 1787479904 | 16.11° C | 71% | 1017.3 hPa | 0 mm | 2.24 m/s, 290° | 334 W/m² | - |
| 1787479844 | 16.11° C | 72% | 1017.5 hPa | 0 mm | 0.45 m/s, 147° | 299 W/m² | - |
| 1787479784 | 16.11° C | 72% | 1017.5 hPa | 0 mm | 1.79 m/s, 205° | 260 W/m² | - |
| 1787479723 | 16.11° C | 72% | 1017.4 hPa | 0 mm | 2.68 m/s, 164° | 233 W/m² | - |
| 1787479664 | 16.11° C | 72% | 1017.3 hPa | 0 mm | 0.89 m/s, 225° | 216 W/m² | - |
| 1787479603 | 16.11° C | 73% | 1017.3 hPa | 0 mm | 1.34 m/s, 172° | 187 W/m² | - |
| 1787479543 | 16.11° C | 72% | 1017.4 hPa | 0 mm | 0.45 m/s, 177° | 147 W/m² | - |
| 1787479483 | 16.11° C | 71% | 1017.5 hPa | 0 mm | 1.79 m/s, 314° | 103 W/m² | - |
| 1787479424 | 16.11° C | 71% | 1017.5 hPa | 0 mm | 2.68 m/s, 251° | 85 W/m² | - |
| 1787479363 | 16.11° C | 71% | 1017.6 hPa | 0 mm | 0.45 m/s, 294° | 78 W/m² | - |
| 1787479304 | 16.11° C | 71% | 1017.5 hPa | 0 mm | 0.45 m/s, 245° | 68 W/m² | - |
* Rain latest hour (hover to see other rain measurements)
** Current wind speed in m/s (hover to see current wind gust speed)